Weather History for Melilla, Spain

Change the Weather History Date:

Monday, February 18, 2013

  Actual Average Record
Temperature  
Mean Temperature 60 °F -  
Max Temperature 68 °F 65 °F 69 °F (2003)
Min Temperature 51 °F 53 °F 42 °F (2009)
Degree Days  
Heating Degree Days 6    
Growing Degree Days 10 (Base 50)    
Moisture  
Dew Point 49 °F    
Average Humidity 66    
Maximum Humidity 88    
Minimum Humidity 38    
Precipitation  
Precipitation 0.00 in 0.06 in - ()
Sea Level Pressure  
Sea Level Pressure 29.90 in    
Wind  
Wind Speed 2 mph ()    
Max Wind Speed 8 mph    
Max Gust Speed -    
Visibility 7.0 miles    
Events      
Averages and records for this station are not official NWS values.
T = Trace of Precipitation, MM = Missing Value Source: Averaged Metar Reports

Daily Weather History Graph

Daily Weather History Graph

Search for Another Location

Airport:

Trip Planner

Search our weather history database for the weather conditions in past years. The results will help you decide how hot, cold, wet, or windy it might be!

Date:

Astronomy

Feb. 18, 2013 Rise Set
Actual Time 7:54 AM CET 6:57 PM CET
Civil Twilight 7:28 AM CET 7:23 PM CET
Nautical Twilight 6:59 AM CET 7:52 PM CET
Astronomical Twilight 6:29 AM CET 8:22 PM CET
Moon 12:38 PM CET (2/18) 2:15 AM CET (2/18)
Length of Visible Light 11h 54m
Length of Day
11h 02m
First Quarter, 56% of the Moon is Illuminated
Feb 18
First Quarter
Feb 25
Full
Mar 4
Last Quarter
Mar 11
New
Mar 19
First Quarter

Hourly Weather History & Observations

Time (CET) Temp. Dew Point Humidity Pressure Visibility Wind Dir Wind Speed Gust Speed Precip Events Conditions
6:00 AM 57.2 °F 50.0 °F 77% 29.95 in - Variable 2.3 mph - N/A   Clear
6:30 AM 53.6 °F 48.2 °F 82% 29.95 in - Calm Calm - N/A   Clear
7:00 AM 54 °F 49 °F 77% 29.95 in 6 mi NW 2.3 mph - -  
7:00 AM 51.8 °F 48.2 °F 88% 29.95 in - Variable 2.3 mph - N/A   Clear
7:30 AM 51.8 °F 46.4 °F 82% 29.95 in - Calm Calm - N/A   Clear
8:00 AM 51.8 °F 46.4 °F 82% 29.95 in - NW 3.5 mph - N/A   Clear
8:30 AM 51.8 °F 48.2 °F 88% 29.95 in - Calm Calm - N/A   Clear
9:00 AM 55.4 °F 48.2 °F 77% 29.95 in - ENE 1.2 mph - N/A   Clear
9:30 AM 57.2 °F 50.0 °F 77% 29.95 in - Variable 1.2 mph - N/A   Clear
10:00 AM 60.8 °F 50.0 °F 68% 29.95 in - Variable 1.2 mph - N/A   Clear
10:30 AM 62.6 °F 50.0 °F 63% 29.95 in - Calm Calm - N/A   Clear
11:00 AM 66.2 °F 48.2 °F 52% 29.95 in - Variable 2.3 mph - N/A   Clear
11:30 AM 66.2 °F 48.2 °F 52% 29.95 in - Variable 2.3 mph - N/A   Clear
12:00 PM 66.2 °F 46.4 °F 49% 29.92 in - ENE 4.6 mph - N/A   Clear
12:30 PM 66.2 °F 48.2 °F 52% 29.92 in - East 3.5 mph - N/A   Clear
1:00 PM 67 °F 47 °F 38% 29.91 in 9 mi ESE 5.8 mph - -   Scattered Clouds
1:00 PM 66.2 °F 46.4 °F 49% 29.92 in - ESE 5.8 mph - N/A   Clear
1:30 PM 66.2 °F 48.2 °F 52% 29.89 in - ENE 5.8 mph - N/A   Clear
2:00 PM 64.4 °F 50.0 °F 59% 29.89 in - ENE 6.9 mph - N/A   Clear
2:30 PM 62.6 °F 51.8 °F 68% 29.89 in - ENE 8.1 mph - N/A   Clear
3:00 PM 62.6 °F 50.0 °F 63% 29.86 in - ENE 6.9 mph - N/A   Clear
3:30 PM 64.4 °F 48.2 °F 56% 29.86 in - East 4.6 mph - N/A   Clear
4:00 PM 64.4 °F 46.4 °F 52% 29.86 in - ENE 5.8 mph - N/A   Clear
4:30 PM 62.6 °F 50.0 °F 63% 29.83 in - East 3.5 mph - N/A   Clear
5:00 PM 62.6 °F 50.0 °F 63% 29.83 in - ENE 4.6 mph - N/A   Clear
5:30 PM 62.6 °F 51.8 °F 68% 29.83 in - East 3.5 mph - N/A   Clear
6:30 PM 60.8 °F 50.0 °F 68% 29.83 in - East 3.5 mph - N/A   Clear
7:00 PM 60 °F 51 °F 65% 29.84 in 6 mi ESE 3.5 mph - -   Scattered Clouds
7:00 PM 60.8 °F 50.0 °F 68% 29.83 in - ESE 3.5 mph - N/A   Clear
7:30 PM 60.8 °F 51.8 °F 72% 29.83 in - Variable 2.3 mph - N/A   Clear